W5URF-13 Weather Reports


time (UTC)temp
C
wind
direction
speed
KPH
gust
KPH
rain 1hr
cm
rain 24hr
cm
rain mn
cm
humidity
%
barometer
mb
20260505101557 18 82 3.2 6.4 0.00 0.00 0.00 80 1003.0
20260505100055 18 96 1.6 6.4 0.00 0.00 0.00 79 1002.8
20260505094559 18 117 1.6 6.4 0.00 0.00 0.00 79 1002.7
20260505093054 19 130 1.6 6.4 0.00 0.00 0.00 78 1002.8
20260505091547 19 164 1.6 6.4 0.00 0.00 0.00 76 1002.8
20260505090044 20 151 1.6 6.4 0.00 0.00 0.00 75 1002.9
20260505084543 20 155 1.6 6.4 0.00 0.00 0.00 75 1003.1
20260505083057 20 140 1.6 4.8 0.00 0.00 0.00 74 1003.1
20260505081540 20 165 1.6 4.8 0.00 0.00 0.00 74 1003.3
20260505080042 20 130 0.0 4.8 0.00 0.00 0.00 74 1003.3
20260505074537 20 117 0.0 0.0 0.00 0.00 0.00 73 1003.6
20260505073039 20 131 0.0 0.0 0.00 0.00 0.00 73 1003.8
20260505071535 20 64 0.0 0.0 0.00 0.00 0.00 73 1003.9
20260505070043 20 39 0.0 4.8 0.00 0.00 0.00 73 1004.2
20260505064533 20 31 0.0 0.0 0.00 0.00 0.00 73 1004.2
20260505063032 20 29 0.0 0.0 0.00 0.00 0.00 73 1004.4
20260505061542 20 359 0.0 0.0 0.00 0.00 0.00 71 1004.2
20260505060027 21 211 3.2 11.3 0.00 0.00 0.00 71 1003.5
20260505054540 21 179 1.6 16.1 0.00 0.00 0.00 70 1003.5
20260505053026 21 233 3.2 12.9 0.00 0.00 0.00 70 1003.6
20260505051523 21 218 3.2 11.3 0.00 0.00 0.00 69 1003.6
20260505041510 21 252 3.2 9.7 0.00 0.00 0.00 67 1003.5
20260505040018 21 146 3.2 9.7 0.00 0.00 0.00 66 1003.9
20260505034504 21 165 4.8 16.1 0.00 0.00 0.00 64 1003.9
20260505033003 21 226 6.4 17.7 0.00 0.00 0.00 63 1004.2
20260505031600 21 151 3.2 12.9 0.00 0.00 0.00 63 1004.4
20260505030059 21 162 4.8 12.9 0.00 0.00 0.00 62 1004.5
20260505024557 21 120 6.4 16.1 0.00 0.00 0.00 61 1004.7
20260505023057 22 151 4.8 11.3 0.00 0.00 0.00 60 1004.8
20260505021558 22 147 4.8 16.1 0.00 0.00 0.00 60 1004.6
20260505020055 22 146 4.8 11.3 0.00 0.00 0.00 60 1004.7
20260505014554 22 152 3.2 9.7 0.00 0.00 0.00 59 1004.6
20260505013053 22 136 4.8 12.9 0.00 0.00 0.00 59 1004.6
20260505011554 23 129 3.2 12.9 0.00 0.00 0.00 59 1004.5
20260505010059 23 221 3.2 11.3 0.00 0.00 0.00 59 1004.4
20260505004551 23 168 1.6 11.3 0.00 0.00 0.00 59 1004.5
20260505003151 23 142 3.2 16.1 0.00 0.00 0.00 58 1004.5
20260505001550 23 158 1.6 11.3 0.00 0.00 0.00 58 1004.7
20260505000055 24 139 4.8 12.9 0.00 0.00 0.00 57 1004.9
20260504234545 24 207 1.6 12.9 0.00 0.00 0.00 57 1004.9
20260504233044 24 175 3.2 14.5 0.00 0.00 0.00 57 1004.8
20260504231542 25 186 3.2 16.1 0.00 0.00 0.00 57 1004.9
20260504230042 25 124 1.6 17.7 0.00 0.00 0.00 56 1004.9
20260504224540 25 214 3.2 17.7 0.00 0.00 0.00 56 1004.9
20260504223039 25 193 4.8 17.7 0.00 0.00 0.00 56 1004.6
20260504221542 25 134 4.8 11.3 0.00 0.00 0.00 55 1004.7
20260504220046 25 88 1.6 11.3 0.00 0.00 0.00 56 1004.7
20260504214537 25 103 3.2 0.0 0.00 0.00 0.00 55 1004.9
20260504213045 25 88 3.2 11.3 0.00 0.00 0.00 54 1004.9
20260504211539 25 115 3.2 16.1 0.00 0.00 0.00 53 1005.0
20260504210033 25 130 1.6 8.0 0.00 0.00 0.00 54 1005.1
20260504204537 25 104 3.2 14.5 0.00 0.00 0.00 52 1005.4
20260504203027 26 126 3.2 11.3 0.00 0.00 0.00 52 1005.6
20260504201526 26 110 1.6 14.5 0.00 0.00 0.00 53 1005.9
20260504200024 26 93 4.8 16.1 0.00 0.00 0.00 52 1006.1
20260504194521 26 115 1.6 8.0 0.00 0.00 0.00 51 1006.3
20260504193022 26 109 3.2 14.5 0.00 0.00 0.00 52 1006.5
20260504191520 26 227 6.4 17.7 0.00 0.00 0.00 51 1006.5
20260504190022 26 104 4.8 16.1 0.00 0.00 0.00 51 1006.5
20260504184515 26 248 3.2 12.9 0.00 0.00 0.00 52 1006.8
20260504183014 26 135 4.8 11.3 0.00 0.00 0.00 50 1007.0
20260504181517 26 107 4.8 19.3 0.00 0.00 0.00 50 1007.2
20260504180010 26 111 4.8 19.3 0.00 0.00 0.00 51 1007.4
20260504174506 26 122 6.4 25.7 0.00 0.00 0.00 50 1007.7
20260504173004 26 149 4.8 17.7 0.00 0.00 0.00 50 1007.8
20260504171506 25 148 3.2 11.3 0.00 0.00 0.00 50 1008.0